This is the latest recevied weather packets stored in our database for station/object KB2SKP. If no packets are shown the sender has not sent any weather packets the latest 10 day(s).
| Time | Temp. | Humidity | Pressure | Rain* | Wind** | Luminosity | Snow |
|---|---|---|---|---|---|---|---|
| 1778071506 | 18.89° C | 71% | 1007.8 hPa | 0 mm | - | 82 W/m² | - |
| 1778071203 | 18.89° C | 71% | 1008.2 hPa | 0 mm | - | 70 W/m² | - |
| 1778070901 | 18.89° C | 72% | 1007.4 hPa | 0 mm | - | 63 W/m² | - |
| 1778070599 | 18.89° C | 71% | 1007.9 hPa | 0 mm | - | 55 W/m² | - |
| 1778070295 | 18.89° C | 72% | 1008 hPa | 0 mm | - | 52 W/m² | - |
| 1778069993 | 18.89° C | 72% | 1008.1 hPa | 0 mm | - | 63 W/m² | - |
| 1778069690 | 18.33° C | 73% | 1008.3 hPa | 0 mm | - | 63 W/m² | - |
| 1778069387 | 18.33° C | 73% | 1008.2 hPa | 0 mm | - | 60 W/m² | - |
| 1778069085 | 18.33° C | 73% | 1008 hPa | 0 mm | - | 48 W/m² | - |
| 1778068782 | 18.33° C | 73% | 1008.1 hPa | 0 mm | - | 36 W/m² | - |
| 1778068480 | 18.33° C | 73% | 1008.5 hPa | 0 mm | - | 50 W/m² | - |
| 1778068178 | 18.33° C | 72% | 1008.3 hPa | 0 mm | - | 40 W/m² | - |
| 1778067875 | 18.33° C | 72% | 1008.2 hPa | 0 mm | - | 31 W/m² | - |
| 1778067573 | 18.33° C | 72% | 1008.2 hPa | 0 mm | - | 33 W/m² | - |
| 1778067271 | 18.33° C | 72% | 1008 hPa | 0 mm | - | 46 W/m² | - |
| 1778066967 | 18.33° C | 72% | 1008.1 hPa | 0 mm | - | 40 W/m² | - |
| 1778066665 | 18.33° C | 72% | 1008 hPa | 0 mm | - | 31 W/m² | - |
| 1778066362 | 18.33° C | 72% | 1007.9 hPa | 0 mm | - | 35 W/m² | - |
| 1778066060 | 18.33° C | 72% | 1008 hPa | 0 mm | - | 33 W/m² | - |
| 1778065757 | 17.78° C | 73% | 1007.8 hPa | 0 mm | - | 30 W/m² | - |
| 1778065455 | 17.78° C | 74% | 1007.9 hPa | 0 mm | - | 31 W/m² | - |
| 1778065151 | 17.78° C | 73% | 1007.8 hPa | 0 mm | - | 21 W/m² | - |
| 1778064847 | 17.78° C | 73% | 1007.8 hPa | 0 mm | - | 11 W/m² | - |
| 1778064545 | 17.78° C | 73% | 1008 hPa | 0 mm | - | 8 W/m² | - |
| 1778064243 | 17.78° C | 73% | 1007.8 hPa | 0 mm | - | 8 W/m² | - |
* Rain latest hour (hover to see other rain measurements)
** Current wind speed in m/s (hover to see current wind gust speed)